Location: Ferintosh
(52.7647°N, 112.9692°W)
Time: 22:36:51
(UTC+00:00)

A-11 Canister half - Pass Details

Date: 25 May 2024
Orbit: 1524 x 1683 km, 47.3° (Epoch: 19 June)

Event Time Altitude Azimuth Distance (km) Brightness Sun altitude
Rises 12:11:17 0° 282° (WNW) 4,823 11.1 5.7°
Reaches altitude 10° 12:18:46 10° 245° (WSW) 3,878 10.5 6.7°
Maximum altitude 12:19:54 10° 238° (WSW) 3,864 10.5 6.8°
Drops below altitude 10° 12:21:03 10° 231° (SW) 3,889 10.5 7.0°
Sets 12:28:43 0° 194° (SSW) 4,905 11.3 8.0°
